Location: *
(41.7492°S, 135.4150°W)
Time: 22:52:34
(UTC+00:00)

METEOR M2 - Pass Details

Date: 02 July 2022
Orbit: 818 x 827 km, 98.4° (Epoch: 17 August)

Event Time Altitude Azimuth Distance (km) Brightness Sun altitude
Rises 15:27:13 0° 3° (N) 3,347 ? -11.3°
Reaches altitude 10° 15:29:36 10° 359° (N) 2,421 ? -10.9°
Maximum altitude 15:34:52 57° 280° (W) 975 ? -10.0°
Drops below altitude 10° 15:40:13 10° 202° (SSW) 2,448 ? -9.1°
Sets 15:42:38 0° 197° (SSW) 3,387 ? -8.6°
